�������l�o���
Date,Time,MP-1(��Sv/h),MP-2(��Sv/h),MP-3(��Sv/h),MP-4(��Sv/h),MP-5(��Sv/h),MP-6(��Sv/h),MP-7(��Sv/h),MP-8(��Sv/h),����,����(m/s),���J
2021/11/28,00:00,0.583,0.874,0.555,1.081,0.755,0.353,0.616,0.581,�k��,7.7,��
2021/11/28,00:10,0.582,0.874,0.556,1.082,0.758,0.352,0.617,0.580,�k��,7.6,��
2021/11/28,00:20,0.583,0.874,0.556,1.080,0.757,0.352,0.617,0.581,���k��,5.7,��
2021/11/28,00:30,0.582,0.874,0.557,1.083,0.756,0.353,0.616,0.580,���k��,5.2,��
2021/11/28,00:40,0.583,0.873,0.556,1.080,0.757,0.352,0.616,0.579,���k��,4.9,��
2021/11/28,00:50,0.582,0.876,0.557,1.082,0.757,0.353,0.616,0.579,���k��,5.0,��
2021/11/28,01:00,0.582,0.875,0.557,1.081,0.757,0.353,0.615,0.580,���k��,6.8,��
2021/11/28,01:10,0.581,0.874,0.556,1.081,0.756,0.353,0.616,0.579,���k��,8.4,��
2021/11/28,01:20,0.580,0.874,0.558,1.081,0.757,0.353,0.616,0.580,�k��,9.2,��
2021/11/28,01:30,0.581,0.875,0.557,1.082,0.757,0.353,0.617,0.579,�k��,7.3,��
2021/11/28,01:40,0.580,0.876,0.557,1.081,0.756,0.353,0.617,0.580,���k��,7.0,��
2021/11/28,01:50,0.582,0.872,0.555,1.083,0.758,0.354,0.618,0.581,���k��,8.9,��
2021/11/28,02:00,0.581,0.875,0.556,1.080,0.756,0.352,0.617,0.580,���k��,8.2,��
2021/11/28,02:10,0.583,0.876,0.556,1.082,0.757,0.354,0.617,0.580,�k��,9.1,��
2021/11/28,02:20,0.582,0.877,0.556,1.079,0.756,0.353,0.618,0.580,���k��,8.7,��
2021/11/28,02:30,0.582,0.875,0.556,1.084,0.758,0.355,0.617,0.582,�k��,9.0,��
2021/11/28,02:40,0.583,0.874,0.557,1.082,0.757,0.354,0.619,0.581,���k��,7.5,��
2021/11/28,02:50,0.582,0.874,0.556,1.081,0.757,0.354,0.618,0.580,���k��,6.9,��
2021/11/28,03:00,0.581,0.876,0.555,1.082,0.757,0.353,0.617,0.582,�k��,5.6,��
2021/11/28,03:10,0.581,0.874,0.557,1.080,0.758,0.352,0.618,0.581,�k��,5.3,��
2021/11/28,03:20,0.581,0.872,0.555,1.082,0.756,0.354,0.618,0.581,�k��,7.3,��
2021/11/28,03:30,0.581,0.875,0.557,1.079,0.756,0.352,0.615,0.580,�k��,8.4,��
2021/11/28,03:40,0.582,0.875,0.557,1.082,0.756,0.353,0.615,0.580,���k��,7.9,��
2021/11/28,03:50,0.581,0.877,0.555,1.081,0.755,0.353,0.616,0.581,���k��,6.2,��
2021/11/28,04:00,0.582,0.874,0.555,1.082,0.756,0.354,0.616,0.580,���k��,7.1,��
2021/11/28,04:10,0.581,0.874,0.556,1.082,0.756,0.353,0.616,0.581,�k��,6.8,��
2021/11/28,04:20,0.582,0.874,0.557,1.082,0.758,0.354,0.616,0.579,�k��,6.6,��
2021/11/28,04:30,0.581,0.875,0.555,1.081,0.756,0.353,0.616,0.580,�k��,6.7,��
2021/11/28,04:40,0.582,0.876,0.555,1.081,0.758,0.353,0.616,0.581,�k��,6.9,��
2021/11/28,04:50,0.582,0.875,0.555,1.082,0.757,0.354,0.617,0.580,�k��,6.2,��
2021/11/28,05:00,0.582,0.873,0.556,1.081,0.757,0.352,0.617,0.579,�k��,8.3,��
2021/11/28,05:10,0.580,0.874,0.557,1.083,0.756,0.353,0.616,0.579,�k��,6.9,��
2021/11/28,05:20,0.580,0.876,0.556,1.081,0.757,0.354,0.618,0.581,�k��,6.3,��
2021/11/28,05:30,0.580,0.873,0.556,1.081,0.758,0.352,0.617,0.580,�k��,5.2,��
2021/11/28,05:40,0.581,0.875,0.557,1.082,0.756,0.353,0.615,0.581,�k��,5.1,��
2021/11/28,05:50,0.582,0.876,0.557,1.081,0.756,0.352,0.617,0.581,�k��,5.9,��
2021/11/28,06:00,0.582,0.875,0.557,1.082,0.758,0.353,0.618,0.581,�k��,5.4,��
2021/11/28,06:10,0.582,0.877,0.559,1.082,0.757,0.354,0.616,0.580,�k��,3.0,��
2021/11/28,06:20,0.580,0.873,0.557,1.080,0.758,0.352,0.616,0.580,���k��,2.3,��
2021/11/28,06:30,0.581,0.873,0.558,1.081,0.757,0.353,0.617,0.580,�k��,4.5,��
2021/11/28,06:40,0.580,0.875,0.555,1.080,0.757,0.353,0.618,0.581,�k�k��,3.7,��
2021/11/28,06:50,0.582,0.875,0.555,1.083,0.757,0.353,0.618,0.583,�k��,4.6,��
2021/11/28,07:00,0.582,0.876,0.556,1.081,0.759,0.353,0.615,0.580,���k��,4.3,��
2021/11/28,07:10,0.582,0.874,0.557,1.082,0.758,0.354,0.616,0.581,�k��,6.6,��
2021/11/28,07:20,0.582,0.875,0.557,1.083,0.757,0.353,0.616,0.581,���k��,4.4,��
2021/11/28,07:30,0.582,0.874,0.556,1.082,0.755,0.353,0.618,0.581,���k��,5.1,��
2021/11/28,07:40,0.583,0.876,0.557,1.082,0.756,0.352,0.617,0.580,���k��,5.9,��
2021/11/28,07:50,0.581,0.875,0.556,1.082,0.757,0.354,0.617,0.582,�k��,4.9,��
2021/11/28,08:00,0.581,0.875,0.558,1.084,0.755,0.353,0.617,0.581,�k��,3.6,��
2021/11/28,08:10,0.581,0.876,0.556,1.082,0.758,0.353,0.616,0.580,�k��,5.1,��
2021/11/28,08:20,0.582,0.876,0.557,1.082,0.756,0.352,0.616,0.580,�k��,5.2,��
2021/11/28,08:30,0.581,0.877,0.557,1.083,0.757,0.353,0.617,0.580,�k��,5.3,��
2021/11/28,08:40,0.582,0.878,0.556,1.082,0.757,0.351,0.620,0.581,�k�k��,5.5,��
2021/11/28,08:50,0.582,0.876,0.557,1.084,0.756,0.353,0.617,0.581,�k��,6.8,��
2021/11/28,09:00,0.581,0.877,0.557,1.082,0.755,0.354,0.618,0.580,�k��,7.0,��
2021/11/28,09:10,0.581,0.877,0.558,1.083,0.757,0.353,0.617,0.582,�k��,4.3,��
2021/11/28,09:20,0.582,0.875,0.557,1.083,0.755,0.353,0.615,0.580,�k��,4.7,��
2021/11/28,09:30,0.584,0.874,0.556,1.082,0.757,0.353,0.616,0.580,�k�k��,7.5,��
2021/11/28,09:40,0.581,0.875,0.556,1.084,0.758,0.354,0.614,0.580,�k��,6.8,��
2021/11/28,09:50,0.581,0.874,0.557,1.083,0.756,0.354,0.617,0.581,�k�k��,9.8,��
2021/11/28,10:00,0.582,0.875,0.558,1.083,0.756,0.354,0.615,0.581,�k��,8.3,��
2021/11/28,10:10,0.582,0.876,0.557,1.083,0.757,0.354,0.615,0.582,�k��,9.1,��
2021/11/28,10:20,0.582,0.875,0.557,1.081,0.758,0.354,0.615,0.583,�k�k��,7.0,��
2021/11/28,10:30,0.582,0.873,0.559,1.083,0.757,0.354,0.615,0.579,�k�k��,6.2,��
2021/11/28,10:40,0.583,0.877,0.558,1.085,0.758,0.355,0.616,0.581,�k�k��,5.7,��
2021/11/28,10:50,0.581,0.874,0.558,1.083,0.758,0.354,0.616,0.581,�k�k��,7.1,��
2021/11/28,11:00,0.583,0.875,0.557,1.084,0.759,0.355,0.615,0.581,�k�k��,7.1,��
2021/11/28,11:10,0.583,0.873,0.557,1.083,0.758,0.353,0.614,0.583,�k�k��,7.5,��
2021/11/28,11:20,0.584,0.875,0.558,1.085,0.757,0.352,0.613,0.582,�k��,8.5,��
2021/11/28,11:30,0.583,0.876,0.558,1.084,0.760,0.355,0.615,0.582,�k�k��,8.8,��
2021/11/28,11:40,0.582,0.875,0.558,1.086,0.759,0.355,0.616,0.580,�k��,7.4,��
2021/11/28,11:50,0.582,0.878,0.557,1.082,0.761,0.354,0.616,0.583,�k�k��,8.0,��
2021/11/28,12:00,0.582,0.875,0.559,1.086,0.762,0.355,0.614,0.582,�k�k��,8.7,��
2021/11/28,12:10,0.583,0.875,0.559,1.083,0.758,0.355,0.617,0.582,�k�k��,9.3,��
2021/11/28,12:20,0.582,0.876,0.560,1.085,0.760,0.355,0.615,0.582,�k�k��,8.3,��
2021/11/28,12:30,0.584,0.874,0.557,1.085,0.756,0.356,0.616,0.582,�k��,8.4,��
2021/11/28,12:40,0.583,0.876,0.558,1.086,0.758,0.354,0.616,0.582,�k,6.8,��
2021/11/28,12:50,0.584,0.877,0.560,1.085,0.758,0.355,0.616,0.582,�k�k��,8.4,��
2021/11/28,13:00,0.583,0.876,0.558,1.086,0.759,0.354,0.615,0.580,�k�k��,7.4,��
2021/11/28,13:10,0.584,0.874,0.558,1.085,0.760,0.354,0.616,0.580,�k�k��,6.4,��
2021/11/28,13:20,0.584,0.877,0.559,1.085,0.761,0.354,0.616,0.580,�k�k��,8.0,��
2021/11/28,13:30,0.585,0.877,0.559,1.086,0.759,0.354,0.617,0.579,�k�k��,7.5,�L
2021/11/28,13:40,0.585,0.878,0.558,1.086,0.760,0.354,0.616,0.579,�k��,8.5,�L
2021/11/28,13:50,0.584,0.878,0.560,1.084,0.760,0.354,0.614,0.580,�k��,7.1,��
2021/11/28,14:00,0.585,0.878,0.558,1.087,0.761,0.355,0.615,0.581,�k��,7.2,��
2021/11/28,14:10,0.583,0.879,0.561,1.086,0.761,0.355,0.615,0.579,�k��,4.6,��
2021/11/28,14:20,0.584,0.877,0.559,1.087,0.760,0.355,0.615,0.580,���k��,6.3,��
2021/11/28,14:30,0.584,0.876,0.557,1.086,0.760,0.354,0.617,0.582,�k��,8.1,��
2021/11/28,14:40,0.585,0.880,0.560,1.088,0.761,0.355,0.615,0.583,�k��,8.6,��
2021/11/28,14:50,0.583,0.879,0.558,1.085,0.761,0.355,0.616,0.582,�k��,8.0,��
2021/11/28,15:00,0.584,0.880,0.559,1.085,0.760,0.355,0.615,0.582,�k��,7.4,��
2021/11/28,15:10,0.585,0.872,0.559,1.084,0.759,0.354,0.616,0.580,�k��,7.6,��
2021/11/28,15:20,0.582,0.877,0.560,1.086,0.761,0.354,0.616,0.582,�k��,7.5,��
2021/11/28,15:30,0.583,0.881,0.558,1.085,0.760,0.354,0.617,0.582,�k��,7.1,��
2021/11/28,15:40,0.582,0.879,0.560,1.086,0.760,0.355,0.617,0.581,�k��,7.5,��
2021/11/28,15:50,0.584,0.881,0.560,1.087,0.758,0.353,0.617,0.581,�k�k��,6.4,��
2021/11/28,16:00,0.581,0.879,0.558,1.087,0.757,0.353,0.617,0.582,�k��,4.6,��
2021/11/28,16:10,0.583,0.879,0.559,1.086,0.759,0.355,0.618,0.581,���k��,5.2,��
2021/11/28,16:20,0.584,0.879,0.557,1.086,0.758,0.355,0.619,0.580,�k��,6.0,��
2021/11/28,16:30,0.583,0.880,0.558,1.085,0.759,0.353,0.617,0.581,�k��,5.2,��
2021/11/28,16:40,0.582,0.880,0.558,1.086,0.759,0.353,0.618,0.581,�k��,6.4,��
2021/11/28,16:50,0.582,0.879,0.557,1.085,0.759,0.354,0.618,0.581,�k��,7.9,��
2021/11/28,17:00,0.583,0.878,0.558,1.087,0.760,0.352,0.618,0.581,�k��,7.5,��
2021/11/28,17:10,0.584,0.877,0.558,1.087,0.758,0.354,0.619,0.581,�k��,5.6,��
2021/11/28,17:20,0.584,0.878,0.556,1.085,0.759,0.354,0.617,0.582,���k��,5.8,��
2021/11/28,17:30,0.584,0.877,0.558,1.087,0.759,0.355,0.616,0.581,�k��,5.5,��
2021/11/28,17:40,0.583,0.877,0.558,1.087,0.758,0.353,0.618,0.580,�k��,4.1,��
2021/11/28,17:50,0.585,0.878,0.558,1.085,0.760,0.353,0.619,0.581,�k�k��,4.6,��
2021/11/28,18:00,0.583,0.880,0.556,1.087,0.758,0.354,0.617,0.580,�k��,3.1,��
2021/11/28,18:10,0.583,0.878,0.559,1.086,0.757,0.354,0.616,0.582,�k��,5.3,��
2021/11/28,18:20,0.583,0.879,0.558,1.087,0.759,0.353,0.615,0.581,�k��,5.4,��
2021/11/28,18:30,0.584,0.879,0.557,1.083,0.759,0.354,0.617,0.580,�k��,5.3,��
2021/11/28,18:40,0.582,0.877,0.556,1.085,0.758,0.354,0.616,0.579,�k��,6.5,��
2021/11/28,18:50,0.583,0.879,0.557,1.085,0.760,0.354,0.617,0.582,�k��,5.2,��
2021/11/28,19:00,0.584,0.879,0.556,1.086,0.758,0.353,0.617,0.581,�k��,4.8,��
2021/11/28,19:10,0.584,0.878,0.558,1.085,0.758,0.354,0.616,0.581,�k��,5.9,��
2021/11/28,19:20,0.582,0.877,0.556,1.085,0.758,0.352,0.616,0.580,�k��,5.6,��
2021/11/28,19:30,0.584,0.879,0.557,1.085,0.758,0.353,0.617,0.580,�k��,5.4,��
2021/11/28,19:40,0.582,0.879,0.556,1.085,0.760,0.352,0.618,0.581,�k��,5.7,��
2021/11/28,19:50,0.582,0.877,0.556,1.084,0.759,0.352,0.616,0.580,�k��,5.7,��
2021/11/28,20:00,0.582,0.879,0.555,1.085,0.758,0.352,0.616,0.579,�k��,5.0,��
2021/11/28,20:10,0.583,0.878,0.557,1.087,0.758,0.352,0.614,0.579,�k��,5.0,��
2021/11/28,20:20,0.584,0.880,0.557,1.086,0.760,0.354,0.617,0.580,�k��,4.6,��
2021/11/28,20:30,0.583,0.877,0.557,1.086,0.760,0.353,0.616,0.581,�k��,4.5,��
2021/11/28,20:40,0.582,0.877,0.557,1.085,0.758,0.352,0.615,0.582,�k��,4.1,��
2021/11/28,20:50,0.582,0.876,0.557,1.086,0.761,0.353,0.615,0.580,�k��,3.3,��
2021/11/28,21:00,0.584,0.877,0.556,1.085,0.759,0.351,0.615,0.580,�k��,2.0,��
2021/11/28,21:10,0.582,0.878,0.555,1.086,0.759,0.353,0.614,0.580,�k��,3.0,��
2021/11/28,21:20,0.583,0.878,0.558,1.085,0.759,0.351,0.614,0.581,���k��,3.2,��
2021/11/28,21:30,0.582,0.877,0.556,1.086,0.757,0.352,0.615,0.581,���k��,2.6,��
2021/11/28,21:40,0.581,0.880,0.558,1.088,0.760,0.353,0.616,0.581,���k��,2.8,��
2021/11/28,21:50,0.581,0.878,0.557,1.084,0.759,0.352,0.615,0.580,��,2.3,��
2021/11/28,22:00,0.583,0.878,0.556,1.085,0.759,0.353,0.616,0.580,���쐼,3.3,��
2021/11/28,22:10,0.582,0.877,0.556,1.084,0.758,0.354,0.614,0.580,��,3.0,��
2021/11/28,22:20,0.582,0.877,0.555,1.084,0.757,0.353,0.615,0.580,��,2.9,��
2021/11/28,22:30,0.582,0.879,0.556,1.084,0.760,0.353,0.615,0.581,��,3.0,��
2021/11/28,22:40,0.581,0.878,0.556,1.084,0.757,0.352,0.615,0.580,���쐼,2.9,��
2021/11/28,22:50,0.584,0.876,0.556,1.086,0.759,0.352,0.615,0.582,��,2.2,��
2021/11/28,23:00,0.582,0.879,0.556,1.085,0.758,0.353,0.614,0.581,���쐼,2.5,��
2021/11/28,23:10,0.580,0.877,0.554,1.087,0.759,0.355,0.615,0.579,��,3.0,��
2021/11/28,23:20,0.582,0.878,0.555,1.085,0.759,0.353,0.616,0.582,���k��,3.6,��
2021/11/28,23:30,0.582,0.880,0.556,1.085,0.756,0.354,0.614,0.580,���k��,4.5,��
2021/11/28,23:40,0.580,0.876,0.555,1.083,0.758,0.352,0.614,0.581,�k��,3.1,��
2021/11/28,23:50,0.581,0.877,0.556,1.084,0.760,0.353,0.616,0.580,���k��,3.7,��
